Jackson, MI

1:13 AM EDT on October 16, 2019 (GMT -0400)
Jackson County-Reynolds

Weather History for KJXN - August, 2019

Change the Weather History Date:

Monday, August 5, 2019

  Actual Average Record
Temperature  
Mean Temperature 74 °F 70 °F  
Max Temperature 87 °F 81 °F 93 °F (1955)
Min Temperature 60 °F 60 °F 43 °F (1972)
Degree Days  
Heating Degree Days 0 1  
Month to date heating degree days 0 1  
Since 1 June heating degree days 58 67  
Since 1 July heating degree days 0 12  
Cooling Degree Days 9 6  
Month to date cooling degree days 23 30  
Year to date cooling degree days 428 395  
Since 1 June cooling degree days 418 358  
Growing Degree Days 23 (Base 50)    
Moisture  
Dew Point 64 °F    
Average Humidity 72    
Maximum Humidity 100    
Minimum Humidity 44    
Precipitation  
Precipitation 0.00 in 0.12 in 0.88 in (1988)
Month to date precipitation 0.00 0.58  
Year to date precipitation 20.19 18.03  
Sea Level Pressure  
Sea Level Pressure 29.96 in    
Wind  
Wind Speed 5 mph (SW)    
Max Wind Speed 15 mph    
Max Gust Speed 22 mph    
Visibility 7 miles    
Events      
T = Trace of Precipitation, MM = Missing Value Source: NWS Daily Summary

Daily Weather History Graph

Daily Weather History Graph

Search for Another Location

Airport or City:

Astronomy

Aug. 05, 2019 Rise Set
Actual Time 6:34 AM EDT 8:52 PM EDT
Civil Twilight 6:03 AM EDT 9:23 PM EDT
Nautical Twilight 5:24 AM EDT 10:02 PM EDT
Astronomical Twilight 4:41 AM EDT 10:44 PM EDT
Moon 11:55 AM EDT (8/5) 11:57 PM EDT (8/5)
Length of Visible Light 15h 20m
Length of Day
14h 18m
Waxing Crescent, 28% of the Moon is Illuminated
Aug 5
Waxing Crescent
Aug 7
First Quarter
Aug 15
Full
Aug 23
Last Quarter
Aug 30
New

Hourly Weather History & Observations

Time (EDT) Temp. Heat Index Dew Point Humidity Pressure Visibility Wind Dir Wind Speed Gust Speed Precip Events Conditions
12:56 AM 68.0 °F - 64.9 °F 90% 29.99 in 10.0 mi Calm Calm - N/A   Clear
1:56 AM 66.9 °F - 64.9 °F 93% 29.99 in 10.0 mi Calm Calm - N/A   Clear
2:56 AM 64.9 °F - 64.0 °F 97% 29.99 in 10.0 mi Calm Calm - N/A   Clear
3:14 AM 62.1 °F - 61.0 °F 96% 30.01 in 1.8 mi West 3.5 mph - N/A   Clear
3:22 AM 63.0 °F - 63.0 °F 100% 30.01 in 3.0 mi WSW 3.5 mph - N/A   Clear
3:52 AM 64.4 °F - 64.4 °F 100% 30.01 in 3.0 mi SW 4.6 mph - N/A   Clear
3:56 AM 63.0 °F - 63.0 °F 100% 30.00 in 5.0 mi SW 4.6 mph - N/A   Clear
4:32 AM 63.0 °F - 63.0 °F 100% 30.01 in 1.8 mi Calm Calm - N/A   Clear
4:56 AM 63.0 °F - 63.0 °F 100% 29.99 in 4.0 mi SW 3.5 mph - N/A   Clear
5:01 AM 63.0 °F - 63.0 °F 100% 30.00 in 1.8 mi Calm Calm - N/A   Clear
5:14 AM 63.0 °F - 63.0 °F 100% 30.00 in 3.0 mi SW 3.5 mph - N/A   Clear
5:56 AM 63.0 °F - 63.0 °F 100% 29.98 in 4.0 mi Calm Calm - N/A   Clear
6:16 AM 63.0 °F - 63.0 °F 100% 30.00 in 1.5 mi Calm Calm - N/A   Clear
6:30 AM 63.0 °F - 62.1 °F 97% 30.00 in 3.0 mi Calm Calm - N/A   Clear
6:56 AM 61.0 °F - 61.0 °F 100% 29.98 in 8.0 mi WSW 3.5 mph - N/A   Clear
7:07 AM 61.0 °F - 61.0 °F 100% 30.00 in 1.8 mi Calm Calm - N/A   Clear
7:14 AM 60.1 °F - 60.1 °F 100% 30.00 in 8.0 mi WSW 3.5 mph - N/A   Clear
7:56 AM 64.0 °F - 64.0 °F 100% 29.99 in 8.0 mi WSW 4.6 mph - N/A   Clear
8:56 AM 71.1 °F - 66.0 °F 84% 29.99 in 10.0 mi SW 3.5 mph - N/A   Clear
9:56 AM 75.0 °F - 66.9 °F 76% 29.99 in 10.0 mi WSW 6.9 mph - N/A   Clear
10:56 AM 78.1 °F - 66.0 °F 66% 29.98 in 10.0 mi WSW 5.8 mph - N/A   Clear
11:56 AM 80.1 °F 81.9 °F 64.9 °F 60% 29.98 in 10.0 mi WSW 8.1 mph - N/A   Partly Cloudy
12:56 PM 82.0 °F 83.1 °F 63.0 °F 52% 29.97 in 10.0 mi SW 8.1 mph - N/A   Clear
1:56 PM 84.0 °F 84.0 °F 60.1 °F 44% 29.96 in 10.0 mi WSW 6.9 mph - N/A   Clear
2:56 PM 84.9 °F 85.4 °F 62.1 °F 46% 29.94 in 10.0 mi SW 8.1 mph - N/A   Clear
3:56 PM 86.0 °F 86.8 °F 63.0 °F 46% 29.92 in 10.0 mi West 6.9 mph - N/A   Clear
4:56 PM 84.0 °F 85.4 °F 64.0 °F 51% 29.90 in 10.0 mi SW 8.1 mph - N/A   Scattered Clouds
5:56 PM 82.9 °F 85.0 °F 66.0 °F 56% 29.89 in 10.0 mi WSW 4.6 mph - N/A   Partly Cloudy
6:56 PM 82.0 °F 84.5 °F 66.9 °F 60% 29.88 in 10.0 mi WSW 5.8 mph - N/A   Clear
7:56 PM 79.0 °F - 69.1 °F 72% 29.86 in 10.0 mi SW 4.6 mph - N/A   Clear
8:56 PM 75.9 °F - 68.0 °F 76% 29.86 in 10.0 mi South 4.6 mph - N/A   Clear
9:56 PM 73.0 °F - 68.0 °F 84% 29.86 in 10.0 mi Calm Calm - N/A   Clear
10:56 PM 71.1 °F - 66.9 °F 87% 29.85 in 10.0 mi SW 3.5 mph - N/A   Clear
11:56 PM 71.1 °F - 68.0 °F 90% 29.85 in 10.0 mi SSW 4.6 mph - N/A   Clear